User: anonymous   Login
Location: Misciano
(43.5000°N, 11.9500°E)
Time: 11:24:05
(UTC+00:00)
Language:

Cosmos 1634 Rocket - Orbit

View from above orbital plane
View from above orbital plane
View from above satellite
View from above satellite

Ground track
Ground track

The orbit data is extracted from the following two-line orbital elements,

1 15598U 85022B   20304.90276368 -.00000040 +00000-0 -56565-4 0  9992
2 15598 082.9345 271.5434 0020686 264.3747 150.0966 13.76577882789681
Epoch (UTC): 30 October 2020 21:39:58
Eccentricity: 0.0020686
inclination: 82.9345°
perigee height: 961 km
apogee height: 991 km
right ascension of ascending node: 271.5434°
argument of perigee: 264.3747°
revolutions per day: 13.76577882
mean anomaly at epoch: 150.0966°
orbit number at epoch: 78968

The dashed part of the orbit path shows where the satellite is in the earth's shadow,  

DLR